This is the latest recevied weather packets stored in our database for station/object N4HAC. If no packets are shown the sender has not sent any weather packets the latest 10 day(s).
| Time | Temp. | Humidity | Pressure | Rain* | Wind** | Luminosity | Snow |
|---|---|---|---|---|---|---|---|
| 1777657076 | 16.67° C | 47% | 1007.5 hPa | 0 mm | - | 845 W/m² | - |
| 1777656773 | 16.67° C | 46% | 1007.6 hPa | 0 mm | - | 850 W/m² | - |
| 1777656469 | 16.11° C | 46% | 1007.5 hPa | 0 mm | - | 856 W/m² | - |
| 1777656164 | 16.11° C | 45% | 1007.6 hPa | 0 mm | - | 866 W/m² | - |
| 1777655860 | 16.11° C | 50% | 1007.7 hPa | 0 mm | - | 674 W/m² | - |
| 1777655557 | 16.11° C | 46% | 1007.7 hPa | 0 mm | - | 820 W/m² | - |
| 1777655254 | 16.11° C | 46% | 1008 hPa | 0 mm | - | 530 W/m² | - |
| 1777654951 | 15.56° C | 47% | 1007.9 hPa | 0 mm | - | 881 W/m² | - |
| 1777654649 | 16.11° C | 49% | 1007.8 hPa | 0 mm | - | 810 W/m² | - |
| 1777654346 | 16.11° C | 49% | 1008.1 hPa | 0 mm | - | 723 W/m² | - |
| 1777654044 | 15.56° C | 47% | 1008 hPa | 0 mm | - | 801 W/m² | - |
| 1777653741 | 16.11° C | 49% | 1007.9 hPa | 0 mm | - | 882 W/m² | - |
| 1777653437 | 16.11° C | 48% | 1008.1 hPa | 0 mm | - | 847 W/m² | - |
| 1777653134 | 16.11° C | 47% | 1008.4 hPa | 0 mm | - | 869 W/m² | - |
| 1777652830 | 15.56° C | 51% | 1008.4 hPa | 0 mm | - | 859 W/m² | - |
| 1777652526 | 15.56° C | 49% | 1008.3 hPa | 0 mm | - | 863 W/m² | - |
| 1777652224 | 15.56° C | 49% | 1008.4 hPa | 0 mm | - | 860 W/m² | - |
| 1777651921 | 15° C | 50% | 1008.5 hPa | 0 mm | - | 858 W/m² | - |
| 1777651617 | 15.56° C | 49% | 1008.6 hPa | 0 mm | - | 854 W/m² | - |
| 1777651315 | 14.44° C | 53% | 1008.5 hPa | 0 mm | - | 849 W/m² | - |
| 1777651011 | 15.56° C | 50% | 1008.8 hPa | 0 mm | - | 847 W/m² | - |
| 1777650708 | 15° C | 49% | 1009 hPa | 0 mm | - | 841 W/m² | - |
| 1777650406 | 14.44° C | 51% | 1008.9 hPa | 0 mm | - | 840 W/m² | - |
| 1777650103 | 14.44° C | 53% | 1008.8 hPa | 0 mm | - | 831 W/m² | - |
| 1777649800 | 15° C | 50% | 1009.1 hPa | 0 mm | - | 822 W/m² | - |
* Rain latest hour (hover to see other rain measurements)
** Current wind speed in m/s (hover to see current wind gust speed)